This is the latest recevied weather packets stored in our database for station/object IZ1UQG-N2. If no packets are shown the sender has not sent any weather packets the latest 1 day(s).
| Time | Temp. | Humidity | Pressure | Rain* | Wind** | Luminosity | Snow |
|---|---|---|---|---|---|---|---|
| 1777977169 | 12.22° C | 88% | 1012.6 hPa | 0 mm | 0.89 m/s, 357° | 128 W/m² | - |
| 1777977109 | 12.22° C | 88% | 1012.7 hPa | 0 mm | 0.89 m/s, 355° | 121 W/m² | - |
| 1777977049 | 12.22° C | 87% | 1012.6 hPa | 0 mm | 0.45 m/s, 356° | 114 W/m² | - |
| 1777977007 | 12.22° C | 87% | 1012.6 hPa | 0 mm | 0.45 m/s, 356° | 114 W/m² | - |
| 1777976989 | 12.22° C | 87% | 1012.5 hPa | 0 mm | 0.45 m/s, 355° | 113 W/m² | - |
| 1777976930 | 12.22° C | 87% | 1012.6 hPa | 0 mm | 0.45 m/s, 354° | 111 W/m² | - |
| 1777976870 | 12.22° C | 87% | 1012.5 hPa | 0 mm | 0.45 m/s, 353° | 107 W/m² | - |
| 1777976828 | 12.22° C | 87% | 1012.5 hPa | 0 mm | 0.45 m/s, 353° | 107 W/m² | - |
| 1777976810 | 12.78° C | 87% | 1012.5 hPa | 0 mm | 0.45 m/s, 353° | 104 W/m² | - |
| 1777976750 | 12.78° C | 87% | 1012.5 hPa | 0 mm | 0.45 m/s, 355° | 102 W/m² | - |
| 1777976690 | 12.78° C | 88% | 1012.5 hPa | 0 mm | 0.89 m/s, 355° | 100 W/m² | - |
| 1777976648 | 12.78° C | 88% | 1012.5 hPa | 0 mm | 0.89 m/s, 355° | 100 W/m² | - |
| 1777976629 | 12.78° C | 87% | 1012.6 hPa | 0 mm | 0.89 m/s, 357° | 100 W/m² | - |
| 1777976569 | 12.78° C | 88% | 1012.5 hPa | 0 mm | 0.89 m/s, 355° | 100 W/m² | - |
| 1777976509 | 12.22° C | 87% | 1012.5 hPa | 0 mm | 0.89 m/s, 354° | 97 W/m² | - |
| 1777976467 | 12.22° C | 87% | 1012.4 hPa | 0 mm | 0.89 m/s, 352° | 91 W/m² | - |
| 1777976449 | 12.22° C | 87% | 1012.4 hPa | 0 mm | 0.89 m/s, 352° | 91 W/m² | - |
| 1777976391 | 12.22° C | 87% | 1012.5 hPa | 0 mm | 0.89 m/s, 353° | 86 W/m² | - |
| 1777976330 | 12.78° C | 87% | 1012.5 hPa | 0 mm | 0.45 m/s, 352° | 79 W/m² | - |
| 1777976288 | 12.78° C | 87% | 1012.5 hPa | 0 mm | 0.45 m/s, 352° | 79 W/m² | - |
| 1777976270 | 12.78° C | 87% | 1012.5 hPa | 0 mm | 0.45 m/s, 350° | 77 W/m² | - |
| 1777976211 | 12.78° C | 87% | 1012.6 hPa | 0 mm | 0.45 m/s, 347° | 76 W/m² | - |
| 1777976151 | 12.78° C | 87% | 1012.5 hPa | 0 mm | 0.45 m/s, 345° | 72 W/m² | - |
| 1777976108 | 12.78° C | 87% | 1012.5 hPa | 0 mm | 0.45 m/s, 345° | 72 W/m² | - |
| 1777976092 | 12.78° C | 87% | 1012.5 hPa | 0 mm | 0 m/s | 69 W/m² | - |
* Rain latest hour (hover to see other rain measurements)
** Current wind speed in m/s (hover to see current wind gust speed)